Location: Berlin
(52.5200°N, 13.4050°E)
Time: 01:09:53
(UTC+01:00)

ISS - Pass Details

Date: 27 July 2018
Orbit: 401 x 408 km, 51.6° (Epoch: 19 December)

Event Time Altitude Azimuth Distance (km) Brightness Sun altitude
Rises 22:15:30 0° 266° (W) 2,339 0.6 -8.7°
Reaches altitude 10° 22:17:35 10° 265° (W) 1,481 -0.4 -8.9°
Maximum altitude 22:20:54 78° 179° (S) 427 -3.8 -9.3°
Drops below altitude 10° 22:24:14 10° 93° (E) 1,491 -1.4 -9.6°
Enters shadow 22:25:03 - 92° (E) 1,826 -0.9 -9.7°
